Flag for Russia Weather past 2 weeks in Yakutsk, Russia

Now
37 °F

Sunny.


Feels Like: 37 °F
Forecast: 16 / 39 °F
Wind: 1 mph from East

Location: Jakutsk

Current Time: Apr 19, 2015 at 1:48:17 PM

Latest Report: Apr 19, 2015 at 1:30 PM


Visibility: 10 mi

Pressure: 30.21 "Hg

Humidity: 23%

Dew point: 3 °F

Location of YakutskLocation

Historic Weather in Yakutsk — Graph

°F

Yakutsk temperature yesterday

Maximum temperature yesterday: 36 °F (at 2:30 PM)
Minimum temperature yesterday: 18 °F (at 10:30 PM)
Average temperature yesterday: 29 °F

Past Weeks' High & Low Weather Summary

 TemperatureHumidityPressure
High37 °F (Apr 17, 1:30 PM)100% (Apr 16, 11:30 PM)30.36 "Hg (Apr 16, 11:30 PM)
Low-15 °F (Apr 5, 3:30 AM)23% (Apr 18, 5:30 PM)29.53 "Hg (Apr 13, 11:00 AM)
Average16 °F64%29.99 "Hg
* Reported Apr 4 12:00 Noon — Apr 19 12:30 PM, Yakutsk, Weather by CustomWeather, © 2015

Note: Actual official high and low records may vary slightly from our data, if they occured in-between our weather recording intervals... More about our weather records

Advertising

Yakutsk weather history for previous 24 hours

 ConditionsComfort  
Time TempWeatherWind HumidityBarometerVisibility
12:30 PM
Sun, Apr 19
37 °FSunny.1 mph26%30.21 "Hg10 mi
12:00 PM36 °FSunny.3 mph27%30.21 "Hg10 mi
11:30 AM32 °FSunny.3 mph34%30.21 "Hg10 mi
11:00 AM32 °FSunny.3 mph37%30.21 "Hg10 mi
10:30 AM30 °FSunny.3 mph37%30.21 "Hg10 mi
10:00 AM27 °FSunny.3 mph43%30.21 "Hg10 mi
9:30 AM27 °FSunny.1 mph50%30.21 "Hg10 mi
9:00 AM25 °FSunny.1 mph50%30.21 "Hg10 mi
8:30 AM21 °FSunny.No wind54%30.21 "Hg10 mi
8:00 AM21 °FSunny.1 mph49%30.21 "Hg10 mi
7:30 AM18 °FSunny.1 mph53%30.21 "Hg10 mi
7:00 AM16 °FSunny.6 mph57%30.21 "Hg10 mi
6:30 AM14 °FSunny.8 mph57%30.21 "Hg10 mi
6:00 AM10 °FSunny.3 mph67%30.21 "Hg10 mi
5:30 AM10 °FSunny.6 mph67%30.18 "Hg10 mi
5:00 AM10 °FSunny.3 mph67%30.18 "Hg10 mi
4:30 AM10 °FClear.6 mph67%30.18 "Hg10 mi
4:00 AM12 °FClear.8 mph62%30.18 "Hg10 mi
3:30 AM12 °FClear.6 mph62%30.15 "Hg10 mi
3:00 AM10 °FClear.6 mph72%30.15 "Hg10 mi
2:30 AM12 °FClear.6 mph67%30.15 "Hg10 mi
2:00 AM14 °FClear.3 mph62%30.15 "Hg10 mi
1:30 AM14 °FClear.6 mph67%30.12 "Hg10 mi
1:00 AM14 °FClear.1 mph67%30.12 "Hg10 mi
12:30 AM16 °FClear.6 mph62%30.12 "Hg10 mi
12:00 AM16 °FClear.6 mph67%30.12 "Hg10 mi
11:30 PM
Sat, Apr 18
18 °FClear.3 mph62%30.12 "Hg10 mi
11:00 PM19 °FClear.No wind58%30.09 "Hg10 mi
10:30 PM18 °FClear.No wind68%30.09 "Hg10 mi
10:00 PM21 °FClear.6 mph58%30.09 "Hg10 mi
9:30 PM25 °FClear.3 mph50%30.09 "Hg10 mi
9:00 PM23 °FClear.3 mph58%30.07 "Hg10 mi
8:30 PM27 °FClear.3 mph50%30.07 "Hg10 mi
8:00 PM30 °FClear.3 mph40%30.07 "Hg10 mi
7:30 PM32 °FSunny.1 mph37%30.07 "Hg10 mi
7:00 PM34 °FSunny.1 mph35%30.04 "Hg10 mi
6:30 PM36 °FSunny.3 mph32%30.04 "Hg10 mi
6:00 PM36 °FSunny.6 mph25%30.04 "Hg10 mi
5:30 PM36 °FSunny.8 mph23%30.04 "Hg10 mi
5:00 PM36 °FSunny.8 mph27%30.01 "Hg10 mi
4:30 PM36 °FSunny.8 mph25%30.01 "Hg10 mi
4:00 PM36 °FSunny.8 mph27%30.01 "Hg10 mi
3:30 PM36 °FSunny.10 mph30%30.01 "Hg10 mi
3:00 PM36 °FSunny.13 mph30%30.01 "Hg10 mi
2:30 PM36 °FSunny.10 mph30%30.01 "Hg10 mi
2:00 PM34 °FSunny.10 mph32%29.98 "Hg10 mi
1:30 PM34 °FSunny.13 mph32%29.98 "Hg10 mi
1:00 PM34 °FSunny.13 mph35%29.98 "Hg10 mi
Weather by CustomWeather, © 2015

See weather overviewHow to use our weather pages